Location: Vassar Physics Lab
(41.6843°N, 73.8954°W)
Time: 16:45:49
(UTC-05:00)

Daily predictions for brighter satellites

Satellite Brightness Start Highest point End
(mag) Time Altitude Azimuth Time Altitude Azimuth Time Altitude Azimuth
BREEZE M DEB (TANK) 3.5 16:49:48 10° NW 16:52:08 25° N 16:56:39 10° ENE
Cosmos 2218 Rocket 4.5 16:55:28 10° N 17:01:19 39° ENE 17:07:04 10° SE
Meteor 1-5 Rocket 4.3 16:56:24 10° N 17:01:41 52° ENE 17:07:04 10° SSE
Cosmos 2181 Rocket 4.1 16:55:47 10° S 17:02:01 65° E 17:08:23 10° NNE
IDEFIX/ARIANE 42P 2.7 16:57:39 10° SE 17:02:40 51° ENE 17:07:42 10° N
Cosmos 1378 Rocket 3.6 16:59:02 10° S 17:03:20 83° W 17:07:40 10° N
USA 234 3.5 16:59:19 10° NE 17:05:49 70° NW 17:12:18 10° WSW
Cosmos 372 Rocket 4.0 17:03:36 10° SSW 17:08:50 76° ESE 17:14:05 10° NNE
Abrixas 4.1 17:07:55 10° WNW 17:10:20 22° N 17:12:32 11° NE
Cosmos 1484 Rocket 3.9 17:09:08 10° ESE 17:12:03 21° ENE 17:14:56 10° NNE
Cosmos 2082 Rocket 3.8 17:10:46 10° NNE 17:13:39 14° NE 17:15:49 12° ENE
OTV 4 2.2 17:11:37 10° WSW 17:14:17 29° S 17:16:57 10° SE
Cosmos 1455 Rocket 3.8 17:11:03 10° NNE 17:14:59 31° ENE 17:18:54 10° SE
Cosmos 1295 Rocket 4.4 17:13:13 10° N 17:19:23 80° E 17:25:28 10° S
Cosmos 1833 Rocket 4.3 17:17:07 10° NNE 17:19:46 13° NE 17:21:00 12° ENE
Cosmos 1125 Rocket 4.2 17:17:30 10° SW 17:22:42 56° WNW 17:27:56 10° NNE
Cosmos 2341 Rocket 4.3 17:17:15 10° NNW 17:23:26 73° W 17:29:37 10° S
Thor Agena Rocket 3.5 17:19:34 10° NNE 17:24:48 83° ESE 17:30:03 10° SSW
ATLAS 2AS CENTAUR R/B 3.1 17:17:39 10° NNW 17:25:41 59° NE 17:33:10 10° SE
Cosmos 494 Rocket 4.4 17:21:12 10° N 17:26:07 40° ENE 17:31:02 10° SE
Cosmos 1536 4.2 17:31:53 10° NNW 17:35:45 43° W 17:39:37 10° SSW
Okean 1 4.0 17:32:06 10° SSE 17:35:45 33° E 17:38:44 14° NNE
Cosmos 1500 4.2 17:33:14 10° NNE 17:36:24 24° ENE 17:39:34 10° SE
Meteor 1-18 Rocket 4.3 17:33:15 10° S 17:38:43 57° E 17:44:19 10° NNE
Cosmos 2251 Rocket 3.5 17:34:01 10° NNW 17:39:20 60° ENE 17:44:35 10° SSE
Cosmos 2263 Rocket 4.2 17:35:21 10° WSW 17:39:40 22° NW 17:44:03 10° N
Meteor 1-28 Rocket 4.4 17:40:03 22° E 17:40:24 22° E 17:43:25 10° SSE
BREEZE-M R/B 4.5 17:34:58 10° SW 17:46:18 64° SE 17:49:49 23° ENE
ISS -3.0 17:44:24 10° WSW 17:47:40 59° NNW 17:49:08 29° NE
MSX 3.9 17:46:56 10° SSE 17:52:42 85° WSW 17:58:29 10° NNW
SL-27 R/B 2.7 17:51:30 10° NNW 17:55:10 73° WSW 17:58:48 10° SSE
Nadezhda 3 Rocket 4.3 17:50:36 10° SSE 17:56:21 42° E 18:02:10 10° NNE
Cosmos 1812 2.6 17:52:44 10° S 17:56:36 88° E 18:00:23 11° N
Cosmos 1346 Rocket 3.3 17:53:11 10° SSE 17:56:47 36° E 17:57:08 35° E
Cosmos 864 Rocket 4.5 17:53:41 10° N 17:59:59 90° E 18:06:18 10° S
CZ-4 R/B 3.7 17:57:08 10° SSW 18:00:44 28° W 18:04:20 10° NW
COSMO-SKYMED 1 2.4 17:57:35 12° NNE 18:01:39 74° ESE 18:05:58 10° S
Tiangong 1 3.5 18:01:39 10° S 18:02:26 12° SSE 18:02:26 12° SSE
Cosmos 1544 Rocket 4.2 17:58:44 10° NNW 18:03:08 59° W 18:07:30 10° S
Cosmos 1844 Rocket 3.3 18:00:04 10° SW 18:05:32 55° WNW 18:11:05 10° NNE
GEOS 3 Rocket 3.5 18:00:56 10° SE 18:06:03 80° NE 18:11:11 10° NW
CZ-2C R/B 4.0 18:02:49 10° SSW 18:07:22 37° W 18:12:06 10° NNW
Cosmos 1238 Rocket 3.4 18:08:53 10° SSW 18:11:42 39° W 18:13:47 16° NNW
Meteor 1-12 Rocket 4.4 18:06:23 10° NNW 18:12:10 81° W 18:18:02 10° S
Cosmos 1844 4.1 18:10:16 10° SW 18:15:45 61° WNW 18:20:25 15° NNE
Cosmos 2297 4.1 18:11:40 10° S 18:16:53 40° ESE 18:17:27 39° E
Cosmos 1975 2.8 18:12:54 10° N 18:17:00 82° W 18:21:03 10° S
CZ-3A R/B 4.3 18:11:33 10° W 18:17:22 53° N 18:35:18 21° ENE
BREEZE-M DEB (TANK) 3.8 18:17:30 10° WNW 18:18:34 19° NW 18:18:34 19° NW
Meteor 2-14 Rocket 4.4 18:14:51 10° N 18:20:55 57° ENE 18:26:56 10° SSE
Cosmos 1536 Rocket 4.1 18:18:27 10° SSW 18:22:50 59° W 18:27:17 10° N
Meteor 1-19 Rocket 4.3 18:22:53 10° S 18:28:28 53° E 18:29:45 44° NE
Cosmos 2278 Rocket 2.3 18:27:49 10° SSW 18:33:27 72° WNW 18:36:35 27° NNE
Meteor 2-21 Rocket 4.3 18:30:28 10° N 18:36:42 84° E 18:42:52 10° S
Meteor 2-16 Rocket 4.2 18:36:20 10° N 18:42:27 76° E 18:48:31 10° SSE
Meteor 1-13 Rocket 4.1 18:37:36 10° S 18:43:15 87° E 18:46:06 32° N
Timation 1 Rocket 4.4 18:40:51 10° S 18:46:14 56° SE 18:46:14 56° SE
Okean 1-7 Rocket 4.0 18:43:11 10° S 18:46:43 55° S 18:46:43 55° S
OTV 4 3.7 18:49:04 10° SW 18:49:39 11° SW 18:49:39 11° SW
CZ-3B DEB 3.2 18:46:49 10° WSW 18:51:21 54° NNW 18:55:17 33° NE
Cosmos 1535 Rocket 4.3 18:47:43 10° N 18:54:05 81° E 19:00:20 10° S
Timation 2 Rocket 4.0 18:50:10 10° NNW 18:57:02 86° ENE 18:59:43 41° SSE
Cosmos 2082 Rocket 2.3 18:53:00 10° NNW 18:57:45 62° N 18:57:45 62° N
Cosmos 1934 Rocket 4.5 18:53:02 10° N 19:06:36 - SSE 18:57:07 43° NNE
NOSS 3-4 (A) 4.3 18:54:31 10° NNW 18:59:50 40° NNE 18:59:50 40° NNE
NOSS 3-4 (C) 4.4 18:54:37 10° NNW 18:59:54 40° NNE 18:59:54 40° NNE
Cosmos 1833 Rocket 3.4 18:59:03 10° NNW 19:02:46 42° N 19:02:46 42° N
BREEZE-M DEB (TANK) 4.4 19:01:39 10° WNW 19:05:27 29° NNW 19:05:27 29° NNW
ATLAS 2AS CENTAUR R/B 4.4 19:09:19 10° NW 19:16:19 35° WSW 19:22:53 10° S
Cosmos 1821 Rocket 4.2 19:14:36 10° NNW 19:20:38 64° W 19:26:38 10° S
ATLAS 3B CENTAUR R/B 4.4 19:51:49 10° WSW 20:00:10 26° SSW 20:00:10 26° SSW
FALCON 9 R/B 4.4 20:19:11 10° W 20:26:28 30° WSW 20:26:28 30° WSW
